Location: Unspecified
(0.0000°N, 0.0000°E)
Time: 22:35:51
(UTC+00:00)

STARLINK-34057 - Visible Passes

Search period start: 20 June 2025 00:00
Search period end: 30 June 2025 00:00
Orbit: 470 x 472 km, 43.0° (Epoch: 20 June)

Date Brightness Start Highest point End Pass type
(mag) Time Alt. Az. Time Alt. Az. Time Alt. Az.
20 Jun 5.6 18:52:01 10° SSE 18:52:07 10° SSE 18:52:07 10° SSE visible
21 Jun 5.2 19:59:21 10° WSW 20:01:21 27° WSW 20:01:21 27° WSW visible
22 Jun 4.4 19:33:18 10° WSW 19:36:59 46° NW 19:39:57 15° NNE visible
23 Jun 4.6 19:10:02 10° WSW 19:13:43 43° NW 19:17:24 10° NNE visible
24 Jun 6.7 05:21:52 10° NNE 05:23:42 13° NE 05:25:33 10° ENE visible
24 Jun 5.0 18:49:20 10° WSW 18:52:59 38° NW 18:56:38 10° NNE visible
25 Jun 6.6 05:01:40 10° N 05:04:01 15° NE 05:06:24 10° E visible
25 Jun 5.6 18:31:05 10° WSW 18:34:38 31° NW 18:38:10 10° NNE visible
26 Jun 6.4 04:43:47 10° N 04:46:39 19° NE 04:49:32 10° E visible
27 Jun 5.8 04:28:08 10° N 04:31:27 25° NE 04:34:46 10° E visible
28 Jun 5.2 04:14:40 10° NNW 04:18:18 34° NE 04:21:59 10° ESE visible
29 Jun 4.4 04:07:22 49° ENE 04:07:22 49° ENE 04:11:03 10° ESE visible
